Auchincruive, United Kingdom

7:14 PM GMT on February 22, 2017 (GMT +0000)
Prestwick

Weather History for EGPK - October, 2013

Change the Weather History Date:

Tuesday, October 1, 2013

  Actual Average Record
Temperature  
Mean Temperature 54 °F -  
Max Temperature 59 °F 54 °F 66 °F (2002)
Min Temperature 50 °F 43 °F 41 °F (2015)
Degree Days  
Heating Degree Days 10    
Growing Degree Days 4 (Base 50)    
Moisture  
Dew Point 48 °F    
Average Humidity 77    
Maximum Humidity 88    
Minimum Humidity 67    
Precipitation  
Precipitation 0.00 in - - ()
Sea Level Pressure  
Sea Level Pressure 29.81 in    
Wind  
Wind Speed 7 mph ()    
Max Wind Speed 20 mph    
Max Gust Speed 28 mph    
Visibility 6.2 miles    
Events Rain    
Averages and records for this station are not official NWS values.
T = Trace of Precipitation, MM = Missing Value Source: Averaged Metar Reports

Daily Weather History Graph

Daily Weather History Graph

Search for Another Location

Airport or City:

Trip Planner

Search our weather history database for the weather conditions in past years. The results will help you decide how hot, cold, wet, or windy it might be!

Date:

Astronomy

Oct. 01, 2013 Rise Set
Actual Time 7:21 AM BST 6:53 PM BST
Civil Twilight 6:44 AM BST 7:30 PM BST
Nautical Twilight 6:01 AM BST 8:12 PM BST
Astronomical Twilight 5:17 AM BST 8:56 PM BST
Moon 3:09 AM BST (10/1) 5:15 PM BST (10/1)
Length of Visible Light 12h 45m
Length of Day
11h 32m
Waning Crescent, 13% of the Moon is Illuminated
Oct 1
Waning Crescent
Oct 5
New
Oct 12
First Quarter
Oct 19
Full
Oct 27
Last Quarter

Hourly Weather History & Observations

Time (BST) Temp. Dew Point Humidity Pressure Visibility Wind Dir Wind Speed Gust Speed Precip Events Conditions
12:20 AM 55.4 °F 46.4 °F 72% 29.83 in 6.2 mi East 4.6 mph 17.3 mph N/A   Scattered Clouds
12:50 AM 55.4 °F 46.4 °F 72% 29.83 in 6.2 mi ENE 3.5 mph - N/A   Scattered Clouds
1:20 AM 53.6 °F 46.4 °F 77% 29.83 in 6.2 mi East 9.2 mph - N/A   Scattered Clouds
1:50 AM 53.6 °F 46.4 °F 77% 29.83 in 6.2 mi East 12.7 mph - N/A   Scattered Clouds
2:50 AM 51.8 °F 44.6 °F 76% 29.86 in 6.2 mi East 10.4 mph - N/A   Scattered Clouds
4:20 AM 50.0 °F 44.6 °F 82% 29.83 in 6.2 mi ENE 3.5 mph - N/A   Partly Cloudy
4:50 AM 50.0 °F 44.6 °F 82% 29.83 in 6.2 mi NNE 4.6 mph - N/A   Partly Cloudy
5:50 AM 50.0 °F 44.6 °F 82% 29.83 in 6.2 mi East 9.2 mph - N/A   Partly Cloudy
6:50 AM 50.0 °F 44.6 °F 82% 29.83 in 6.2 mi ENE 3.5 mph - N/A   Partly Cloudy
7:20 AM 50.0 °F 42.8 °F 76% 29.83 in 6.2 mi ENE 3.5 mph - N/A   Partly Cloudy
7:50 AM 50.0 °F 42.8 °F 76% 29.83 in 6.2 mi ENE 3.5 mph - N/A   Partly Cloudy
8:20 AM 51.8 °F 44.6 °F 76% 29.83 in 6.2 mi ENE 3.5 mph - N/A   Partly Cloudy
8:50 AM 51.8 °F 44.6 °F 76% 29.83 in 6.2 mi Variable 3.5 mph - N/A   Partly Cloudy
9:20 AM 53.6 °F 44.6 °F 72% 29.83 in 6.2 mi ENE 2.3 mph - N/A   Partly Cloudy
9:50 AM 53.6 °F 44.6 °F 72% 29.83 in 6.2 mi East 5.8 mph - N/A   Partly Cloudy
10:20 AM 55.4 °F 46.4 °F 72% 29.83 in 6.2 mi East 6.9 mph - N/A   Partly Cloudy
10:50 AM 55.4 °F 46.4 °F 72% 29.83 in 6.2 mi East 5.8 mph - N/A   Partly Cloudy
11:20 AM 57.2 °F 46.4 °F 67% 29.83 in 6.2 mi East 5.8 mph - N/A   Partly Cloudy
11:50 AM 57.2 °F 48.2 °F 72% 29.83 in 6.2 mi East 5.8 mph - N/A   Partly Cloudy
12:20 PM 57.2 °F 48.2 °F 72% 29.83 in 6.2 mi East 8.1 mph 19.6 mph N/A   Partly Cloudy
12:50 PM 57.2 °F 48.2 °F 72% 29.83 in 6.2 mi East 11.5 mph - N/A   Partly Cloudy
1:20 PM 57.2 °F 48.2 °F 72% 29.80 in 6.2 mi East 15.0 mph - N/A Rain Light Rain Showers
1:50 PM 55.4 °F 50.0 °F 82% 29.80 in 6.2 mi East 2.3 mph 13.8 mph N/A Rain Light Rain Showers
2:20 PM 53.6 °F 50.0 °F 88% 29.80 in 6.2 mi East 6.9 mph - N/A Rain Light Rain Showers
2:50 PM 55.4 °F 50.0 °F 82% 29.80 in 6.2 mi East 11.5 mph - N/A   Scattered Clouds
3:20 PM 55.4 °F 50.0 °F 82% 29.80 in 6.2 mi East 8.1 mph - N/A   Scattered Clouds
3:50 PM 57.2 °F 50.0 °F 77% 29.80 in 6.2 mi East 10.4 mph - N/A Rain Light Rain Showers
4:20 PM 57.2 °F 50.0 °F 77% 29.77 in 6.2 mi East 10.4 mph - N/A Rain Light Rain Showers
4:50 PM 57.2 °F 50.0 °F 77% 29.77 in 6.2 mi East 12.7 mph - N/A   Scattered Clouds
5:20 PM 57.2 °F 50.0 °F 77% 29.74 in 6.2 mi East 13.8 mph - N/A   Scattered Clouds
5:50 PM 59.0 °F 50.0 °F 72% 29.77 in 6.2 mi ESE 15.0 mph - N/A   Scattered Clouds
6:20 PM 57.2 °F 50.0 °F 77% 29.77 in 6.2 mi ESE 15.0 mph - N/A   Scattered Clouds
6:50 PM 57.2 °F 50.0 °F 77% 29.77 in 6.2 mi ESE 16.1 mph 27.6 mph N/A   Scattered Clouds
7:20 PM 57.2 °F 50.0 °F 77% 29.77 in 6.2 mi ESE 19.6 mph - N/A   Scattered Clouds
7:50 PM 57.2 °F 50.0 °F 77% 29.77 in 6.2 mi ESE 13.8 mph - N/A   Scattered Clouds
8:20 PM 57.2 °F 50.0 °F 77% 29.77 in 6.2 mi ESE 18.4 mph - N/A   Scattered Clouds
8:50 PM 57.2 °F 50.0 °F 77% 29.77 in 6.2 mi ESE 16.1 mph - N/A   Scattered Clouds
9:20 PM 57.2 °F 50.0 °F 77% 29.80 in 6.2 mi ESE 11.5 mph - N/A   Scattered Clouds
9:50 PM 57.2 °F 50.0 °F 77% 29.80 in 6.2 mi East 10.4 mph - N/A   Scattered Clouds
10:20 PM 55.4 °F 50.0 °F 82% 29.80 in 6.2 mi East 10.4 mph - N/A Rain Light Rain Showers
10:50 PM 55.4 °F 51.8 °F 88% 29.80 in 6.2 mi East 11.5 mph - N/A Rain Light Rain Showers
11:20 PM 55.4 °F 50.0 °F 82% 29.80 in 6.2 mi East 10.4 mph - N/A   Mostly Cloudy
11:50 PM 55.4 °F 50.0 °F 82% 29.77 in 6.2 mi ESE 11.5 mph - N/A   Scattered Clouds